Regional Weather Roundup
Issued by NWS Charleston, SC

Current Version | Previous Version | Graphics & Text | Print | Product List | Glossary On
Versions: 1 2 3 4 5 6 7 8 9 10 11 12 13 14 15 16 17 18 19 20 21 22 23 24 25 26 27 28 29 30 31 32 33 34 35 36 37 38 39 40 41 42 43 44 45 46 47 48 49 50
000 ASUS42 KCHS 052326 RWRCHS REGIONAL WEATHER ROUNDUP NATIONAL WEATHER SERVICE CHARLESTON SC 600 PM EST THU MAR 05 2015 NOTE: "FAIR" INDICATES FEW OR NO CLOUDS BELOW 12,000 FEET WITH NO SIGNIFICANT WEATHER AND/OR OBSTRUCTIONS TO VISIBILITY. NOT ALL STATIONS ARE QUALITY CONTROLLED BY THE NATIONAL WEATHER SERVICE. USE DATA WITH CAUTION...ESPECIALLY DEWPOINT OBSERVATIONS. SCZ027-030-031-034>040-042>050-060000- ...SOUTHEAST SOUTH CAROLINA... CITY SKY/WX TMP DP RH WIND PRES REMARKS N CHARLESTON LGT RAIN 70 61 73 W9 30.02R WATERFRONT PRK N/A 64 N/A N/A SW12G17 N/A MOUNT PLEASANT CLOUDY 70 63 78 CALM 30.00R PINOPOLIS N/A 61 55 82 NW6 29.90R MONCKS CORNER HVY RAIN 66 63 88 CALM 30.01R SUMMERVILLE HVY RAIN 64 64 100 SW5 30.02R BEAUFORT MCAS RAIN 65 63 93 W10 30.03R FOG BEAUFORT ARPT CLOUDY 66 63 88 NW13G18 30.02R FOG HILTON HEAD IS MOCLDY 55 64 100 NW12G25 30.04R WALTERBORO RAIN 64 64 100 W10 30.02R ALLENDALE LGT RAIN 63 63 100 CALM 30.00R ...SOUTHERN MIDLANDS AND PEE DEE... CITY SKY/WX TMP DP RH WIND PRES REMARKS GEORGETOWN NOT AVBL KINGSTREE NOT AVBL ORANGEBURG LGT RAIN 64 60 87 W8 30.00R BARNWELL LGT RAIN 61 61 100 W5 30.02R AIKEN CLOUDY 59 55 88 W5 30.05R MANNING RAIN N/A N/A N/A NW3 30.00R COLUMBIA LGT RAIN 58 55 90 N10 30.02R SUMTER LGT RAIN 48 48 100 NE10 30.03R FLORENCE CLOUDY 45 43 93 N14 30.04R MYRTLE BEACH MOCLDY 52 45 76 N16G24 30.03R N MYRTLE BEACH CLOUDY 48 43 82 NE18G25 30.00S $$ GAZ063-065-086>088-099>101-113>116-118-119-134>141-150-060000- ...SOUTHEAST GEORGIA... CITY SKY/WX TMP DP RH WIND PRES REMARKS SAVANNAH ARPT HVY RAIN 64 63 94 W12G22 30.04R FOG HUNTER AAF MOCLDY 66 64 94 NW15G23 30.00R FORT STEWART HVY RAIN 64 63 94 W6 30.03R FOG STATESBORO CLOUDY 62 62 100 W5 30.03R SYLVANIA LGT RAIN 62 62 99 CALM 30.03R CLAXTON LGT RAIN 63 63 100 W3 30.04R ...CSRA...CENTRAL AND FAR SOUTHEAST GEORGIA... CITY SKY/WX TMP DP RH WIND PRES REMARKS THOMSON CLOUDY 56 51 84 W13 30.11R AUGUSTA-BUSH CLOUDY 61 58 90 W6 30.01R AUGUSTA-DANIEL CLOUDY 63 56 78 W6 30.02R SWAINSBORO DRIZZLE 61 59 94 NW9 30.06R VIDALIA CLOUDY 61 59 94 W7 30.06R EASTMAN CLOUDY 59 59 100 NW7 30.10R HAZLEHURST RAIN 63 63 100 NW3 30.05R ALMA LGT RAIN 64 61 90 NW6 30.05R WAYCROSS RAIN 68 67 98 N7 30.06R JESUP HVY RAIN 68 64 88 N3 30.05R BAXLEY HVY RAIN 64 63 94 W3 30.05R BRUNSWICK CLOUDY 81 61 50 SW14G20 30.01R SAINT SIMONS MOCLDY 80 60 50 SW12 30.00R $$ SCZ027-028-034-036>038-045-046-048>050-GAZ119-141-060000- ...LAKE AND SUPPLEMENTAL COASTAL OBSERVATIONS... STATION/POSITION TIME TEMP WIND PRES WAVE SWELL AIR SEA DIR/SP/G HT/PER HT/PER/DIR (UTC) (F) (DEG/KT/KT) (MB) (FT/S) (FT/S/D) UPR LAKE MARION NOT AVBL WINYAH BAY 2245 67 330/ 11 1014.0R LAKE MURRAY 2300 52 10/ 3/ 7 1016.9R ACE BASIN NERRS NOT AVBL FORT PULASKI 2300 65 53 300/ 15/ 19 1017.3R SAPELO ISLAND 2300 74 150/ 6 1015.0R $$ ANZ835-935-AMZ111-154-330-350-352-354-370-450-454-472-060000- ...C-MAN AND BUOY OBSERVATIONS... STATION/POSITION TIME TEMP WIND PRES WAVE SWELL AIR SEA DIR/SP/G HT/PER HT/PER/DIR (UTC) (F) (DEG/KT/KT) (MB) (FT/S) (FT/S/D) BUOY 41004 2250 70 68 200/ 19/ 23 1014.0R 6/ 7 2/10 BUOY 41008 2250 60 56 190/ 12/ 14 1015.5R 3/11 2/ 80/11 FOLLY BEACH CMAN 2300 59 240/ 10/ 13 1015.5R CAPERS NEARSHORE 2200 57 360/ 12/ 16 N/A FRIPP NEARSHORE 2200 58 200/ 12/ 16 1014.2S STATION/POSITION TIME TEMP WIND PRES WAVE SWELL AIR SEA DIR/SP/G HT/PER HT/PER/DIR (UTC) (F) (DEG/KT/KT) (MB) (FT/S) (FT/S/D) 5E ST. MARYS GA 2221 56 N/A 3/ 9 2/130/11 FRYING PAN BUOY 2250 69 65 210/ 21/ 25 1014.0R 7/ 7 2/160/11 BUOY 41025 NOT AVBL CAPE LOOKOUT NC 2300 360/ 23/ 30 1018.4R BUOY 41002 2250 74 73 230/ 21/ 25 1018.6R 7/ 7 3/130/10 BUOY 41010 2220 75 75 170/ 14/ 16 1018.7F ST AUGUSTINE FL 2300 81 240/ 11/ 16 1017.9R $$

USA.gov is the U.S. government's official web portal to all federal, state and local government web resources and services.